Miscellaneous Local Product
Issued by NWS North Platte, NE

Home | Current Version | Previous Version | Graphics & Text | Print | Product List | Glossary Off
Versions: 1 2 3 4 5 6 7 8 9 10 11 12 13 14 15 16 17 18 19 20 21 22 23 24 25 26 27 28 29 30 31 32 33 34 35 36 37 38 39 40 41 42 43 44 45 46 47 48 49 50

000
AXUS43 KLBF 281110
MISLBF


WESTERN AND NORTH CENTRAL NEBRASKA HOURLY WEATHER ROUNDUP
NATIONAL WEATHER SERVICE NORTH PLATTE NE
600 AM CDT SAT MAR 28 2015

***STATIONS NOT REPORTING VARIABLES SUCH AS SKY/WEATHER OR
PRESSURE ARE PROVIDED BY THE NEBRASKA DEPARTMENT OF
ROADS...RAWS...AND APRS NETWORKS...AND ARE NOT UNDER
NATIONAL WEATHER SERVICE QUALITY CONTROL***

...OBSERVATIONS IN AND NEAR THE EASTERN PANHANDLE OF NEBRASKA...

CITY           SKY/WX    TMP DP  RH WIND       PRES   REMARKS
PINE RIDGE     PTCLDY    28  25  88 E3        29.95S
CHADRON        CLEAR     31  27  85 SW5       29.95S WCI  26
ALLIANCE       CLEAR     30  27  88 CALM      29.97S
SIDNEY         CLEAR     35  27  72 NW9       30.00S WCI  28
WHITECLAY        N/A     30  27  86 E6          N/A  WCI  24
CRESCENT LAKE    N/A     40  32  74 NW3         N/A
BIG SPRINGS      N/A     36  30  80 SW5         N/A  WCI  32
$$

...OBSERVATIONS IN NORTH CENTRAL NEBRASKA...

CITY           SKY/WX    TMP DP  RH WIND       PRES   REMARKS
VALENTINE      CLEAR     28  25  88 CALM      29.97F
THEDFORD       CLEAR     31  30  96 W3        29.98R
AINSWORTH      CLEAR     32  29  88 CALM      29.98S
O`NEILL        CLEAR     31  28  89 S6        30.00S WCI  25
ORD            MOCLDY    24  20  84 CALM      30.00R
BROKEN BOW     CLEAR     28  24  85 CALM      29.97S
BROWNLEE         N/A     45  33  64 E8          N/A
SPRINGVIEW       N/A     26  24  91 CALM        N/A
BREWSTER         N/A     30  30 100 CALM        N/A
ROSE             N/A     39  35  85 NE6         N/A  WCI  35
NEWPORT          N/A     30  30 100 CALM        N/A
SARGENT          N/A     27  24  89 CALM        N/A
COMSTOCK         N/A     30  27  86 CALM        N/A
EWING            N/A     28  26  91 CALM        N/A
$$

...OBSERVATIONS IN SOUTHWEST NEBRASKA AND FAR NORTHEAST COLORADO...

CITY           SKY/WX    TMP DP  RH WIND       PRES   REMARKS
WRAY           FAIR      38  32  77 W7        29.99F WCI  33
HOLYOKE        FAIR      41  32  70 W3        29.99R
IMPERIAL         N/A     34  27  75 NW5       29.98R WCI  30
OGALLALA       CLEAR     33  30  91 W7        29.98S WCI  26
NORTH PLATTE   CLEAR     29  27  92 SE3       29.97R
MCCOOK         PTCLDY    36  31  82 W9        29.96R WCI  29
LEXINGTON      CLEAR     29  26  88 W6        29.98R WCI  23
PAXTON           N/A     37  32  81 CALM        N/A
SUTHERLAND       N/A     34  32  92 W9          N/A  WCI  27
BRADY            N/A     31  27  85 CALM        N/A
GOTHENBURG       N/A     36  29  76 CALM        N/A
CALLAWAY         N/A     35  31  87 NW6         N/A  WCI  30
$$

...NORTH PLATTE AREA...

CITY           SKY/WX    TMP DP  RH WIND       PRES   REMARKS
AIRPORT        CLEAR     29  27  92 SE3       29.97R
DOWNTOWN         N/A     35  32  89 CALM        N/A
$$

...SOME WEATHER OBSERVATIONS FROM AROUND THE REGION...

CITY           SKY/WX    TMP DP  RH WIND       PRES   REMARKS
DENVER         CLEAR     47  30  51 SW12      30.07S
LARAMIE        CLEAR     32  22  66 W12       30.14S WCI  23
CHEYENNE       CLEAR     46  23  40 W15       30.08S
SCOTTSBLUFF    CLEAR     32  27  81 W7        29.99S WCI  26
RAPID CITY     CLEAR     35  29  78 CALM      29.92F
PIERRE         CLEAR     23  22  96 E7        29.98S FOG     WCI  15
WINNER         FAIR      32  28  85 SE7       29.98S WCI  26
SIOUX FALLS    CLOUDY    30  25  81 SE10G22   30.10R WCI  21
OMAHA          MOCLDY    34  27  75 SE12      30.12R WCI  25
GRAND ISLAND   CLEAR     29  23  78 E6        30.03R WCI  23
KANSAS CITY    CLOUDY    36  27  69 E13       30.11R WCI  27
WICHITA        PTCLDY    41  31  67 SE9       29.99S
HAYS           CLEAR     36  27  69 NW7       29.94S WCI  30
LIBERAL        CLEAR     48  32  53 W13       30.01S
GOODLAND       CLEAR     41  33  73 W6        30.00S
$$



USA.gov is the U.S. government's official web portal to all federal, state and local government web resources and services.